Flag for Canada Weather past 2 weeks in Prince Albert, Saskatchewan, Canada

Now
55 °F

Partly cloudy.


Feels Like: 54 °F
Forecast: 47 / 64 °F
Wind: 7 mph from Southwest

Location: Prince Albert

Current Time: Sep 19, 2014 at 10:04:29 PM

Latest Report: Sep 19, 2014 at 9:00 PM


Visibility: 15 mi

Pressure: 29.68 "Hg

Humidity: 88%

Dew point: 52 °F

Location of Prince AlbertLocation

Historic Weather in Prince Albert — Graph

°F

Prince Albert temperature yesterday

Maximum temperature yesterday: 63 °F (at 12:00 PM)
Minimum temperature yesterday: 41 °F (at 12:00 AM)
Average temperature yesterday: 52 °F

Past Weeks' High & Low Weather Summary

 TemperatureHumidityPressure
High70 °F (Sep 7, 12:00 PM)100% (Sep 7, 3:00 AM)30.59 "Hg (Sep 7, 3:00 AM)
Low28 °F (Sep 9, 6:00 AM)36% (Sep 14, 2:00 PM)29.49 "Hg (Sep 18, 3:00 PM)
Average48 °F76%30.06 "Hg
* Reported Sep 4 9:00 PM — Sep 19 9:00 PM, Prince Albert, Weather by CustomWeather, © 2014

Note: Actual official high and low records may vary slightly from our data, if they occured in-between our weather recording intervals... More about our weather records

Advertising

Prince Albert weather history for previous 24 hours

 ConditionsComfort  
Time TempWeatherWind HumidityBarometerVisibility
9:00 PM
Sep 19
55 °FPartly cloudy.7 mph88%29.68 "Hg15 mi
8:00 PM55 °FPassing clouds.8 mph82%29.67 "Hg15 mi
7:00 PM63 °FScattered clouds.6 mph68%29.66 "Hg15 mi
6:00 PM64 °FBroken clouds.6 mph68%29.66 "Hg15 mi
5:00 PM64 °FBroken clouds.7 mph68%29.65 "Hg15 mi
4:00 PM68 °FScattered clouds.5 mph60%29.65 "Hg15 mi
3:00 PM66 °FScattered clouds.2 mph60%29.65 "Hg15 mi
2:00 PM64 °FScattered clouds.2 mph68%29.65 "Hg15 mi
1:00 PM63 °FPartly sunny.3 mph73%29.66 "Hg15 mi
12:00 PM59 °FPartly sunny.No wind82%29.66 "Hg15 mi
11:48 AM59 °FPartly sunny.No wind82%29.66 "Hg15 mi
11:00 AM57 °FMostly cloudy.3 mph88%29.66 "Hg15 mi
10:00 AM55 °FMore clouds than sun.5 mph94%29.64 "Hg15 mi
9:00 AM54 °FMore clouds than sun.No wind94%29.63 "Hg15 mi
8:00 AM52 °FScattered showers. More clouds than sun.No wind100%29.62 "Hg15 mi
7:00 AM50 °FMostly cloudy.2 mph100%29.59 "Hg15 mi
6:00 AM50 °FScattered showers. Passing clouds.3 mph100%29.59 "Hg15 mi
5:00 AM50 °FPassing clouds.3 mph100%29.58 "Hg15 mi
4:00 AM52 °FOvercast.2 mph94%29.57 "Hg15 mi
3:00 AM52 °FOvercast.3 mph94%29.56 "Hg15 mi
2:00 AM52 °FPassing clouds.5 mph94%29.56 "Hg15 mi
1:00 AM52 °FPartly cloudy.2 mph94%29.54 "Hg15 mi
12:00 AM52 °FPassing clouds.6 mph94%29.55 "Hg15 mi
11:00 PM
Sep 18
54 °FOvercast.3 mph94%29.54 "Hg15 mi
10:00 PM55 °FOvercast.6 mph88%29.53 "Hg15 mi
Weather by CustomWeather, © 2014

See weather overviewHow to use our weather pages